Regional Weather Roundup
Issued by NWS

Home | Current Version | Previous Version | Graphics & Text | Print | Product List | Glossary On
Versions: 1 2 3 4 5 6 7 8 9 10 11 12 13 14 15 16 17 18 19 20 21 22 23 24 25 26 27 28 29 30 31 32 33 34 35 36 37 38 39 40 41 42 43 44 45 46 47 48 49 50
000
ASUS43 KDMX 232206
RWRIA

WEATHER ROUNDUP FOR IOWA
NATIONAL WEATHER SERVICE DES MOINES IA
500 PM CDT WED MAY 23 2018

NOTE: "FAIR" INDICATES FEW OR NO CLOUDS BELOW 12,000 FEET WITH NO
SIGNIFICANT WEATHER AND/OR OBSTRUCTIONS TO VISIBILITY.

* - THESE STATIONS ARE NOT NWS STATIONS...THUS NOT UNDER NWS
QUALITY CONTROL.  THEY ALSO DO NOT REPORT WEATHER SUCH
AS PRECIPITATION OR FOG.

IAZ001>003-012>014-020>022-031>034-043>046-232300-
   NORTHWEST IOWA

CITY           SKY/WX    TMP DP  RH WIND       PRES   REMARKS
CARROLL *      SUNNY    N/A N/A N/A SE15G25   30.01S
CHEROKEE *     CLOUDY    88  57  35 S13       29.99F HX  86
DENISON *      CLOUDY    88  63  42 S14G21    30.01S HX  88
LE MARS *      SUNNY     90  61  37 S16G28    29.96F HX  89
ORANGE CITY *  CLOUDY    90  55  31 S20G25    29.99S HX  88
SHELDON *      CLOUDY    88  55  33 S16G23    29.97F HX  86
SIOUX CITY     SUNNY     90  63  40 S15G29    29.95F HX  91
SPENCER        MOSUNNY   86  60  41 S14G24    30.00F HX  86
STORM LAKE *   MOSUNNY   88  57  35 S18       30.01S HX  86
$$

IAZ055>058-069>071-079>083-090>094-232300-
   SOUTHWEST IOWA

CITY           SKY/WX    TMP DP  RH WIND       PRES   REMARKS
ATLANTIC *     MOSUNNY   90  63  40 S13G22    30.00F HX  90
AUDUBON *      SUNNY     88  63  42 S13       30.03S HX  88
CLARINDA *     SUNNY     90  63  40 S10G17    30.02F HX  90
COUNCIL BLFS * SUNNY     88  63  42 S14G21    29.98F HX  88
CRESTON *      MOSUNNY   86  64  48 SE15      30.05F HX  87
HARLAN  *      CLOUDY    90  61  37 S15G22    30.03S HX  89
LAMONI         SUNNY     86  67  52 SE8       30.05F HX  89
RED OAK *      MOSUNNY   90  63  40 SE14G20   29.99S HX  90
SHENANDOAH *   MOSUNNY   88  61  40 S15       29.99S HX  88
$$

IAZ047>049-059>061-072>074-084-232300-
   CENTRAL IOWA

CITY           SKY/WX    TMP DP  RH WIND       PRES   REMARKS
AMES           MOSUNNY   85  66  53 SE15      30.04F HX  87
ANKENY *       MOSUNNY   86  66  51 SE10G17   30.05F HX  88
BOONE *        MOSUNNY   86  63  45 SE15      30.03F HX  87
CHARITON *     MOSUNNY   86  66  51 E12       30.06F HX  88
DES MOINES     MOSUNNY   86  65  49 S14       30.04F HX  88
GRINNELL*      MOSUNNY   84  63  49 SE12      30.09F HX  85
KNOXVILLE *    SUNNY     86  61  42 S9G15     30.05F HX  86
MARSHALLTOWN   MOSUNNY   85  64  49 SE13      30.06F HX  86
NEWTON *       MOSUNNY   86  63  45 S10G17    30.06F HX  87
PELLA *        SUNNY     86  62  43 SE9       30.07F HX  86
PERRY *        FAIR      89  56  33 SE10G21   30.03S HX  87
$$

IAZ004>006-015-016-023>025-035-036-232300-
   NORTH CENTRAL IOWA

CITY           SKY/WX    TMP DP  RH WIND       PRES   REMARKS
ALGONA *       MOSUNNY   84  70  61 SE13G21   30.04S HX  88
CLARION *      CLOUDY    84  66  54 SE16      30.05F HX  86
ESTHERVILLE    CLOUDY    81  70  69 SE20      30.02F HX  84
FORT DODGE *   CLOUDY    85  67  54 SE8       30.03F HX  87
MASON CITY     SUNNY     81  68  64 S14       30.08F HX  84
FOREST CITY *  FAIR      81  68  65 S10       30.07F HX  83
WEBSTER CITY * MOSUNNY   86  64  48 SE15      30.02S HX  87
IOWA FALLS *   PTSUNNY   85  66  52 SE13      30.08F HX  87
$$

IAZ007>011-017>019-026>030-037>042-050>054-066-232300-
   NORTHEAST IOWA

CITY           SKY/WX    TMP DP  RH WIND       PRES   REMARKS
CEDAR RAPIDS   FAIR      84  64  50 SE10      30.09F HX  85
CLINTON *        N/A     82  63  52 SE9       30.13F HX  83
DECORAH *      FAIR      77  66  69 VRB6G12   30.11F
DUBUQUE        FAIR      79  60  52 CALM      30.14S HX  80
MONTICELLO *   PTSUNNY   82  64  54 VRB5G14   30.11F HX  84
OELWEIN *      FAIR      82  64  54 SE10G16   30.11S HX  84
WATERLOO       FAIR      82  65  56 SE12      30.07F HX  84
$$

IAZ064-065-067-068-078-232300-
   EAST CENTRAL IOWA

CITY           SKY/WX    TMP DP  RH WIND       PRES   REMARKS
DAVENPORT      FAIR      82  62  50 E7        30.13F HX  83
IOWA CITY      FAIR      84  65  52 SE6       30.10F HX  86
MT. PLEASANT * MOSUNNY   86  61  42 SE7       30.10S HX  86
MUSCATINE *    FAIR      84  64  51 S9G15     30.10S HX  86
QUAD CITIES    FAIR      84  64  50 NE10      30.10F HX  85
$$

IAZ062-063-075>077-085>089-095>099-232300-
   SOUTHEAST IOWA

CITY           SKY/WX    TMP DP  RH WIND       PRES   REMARKS
BURLINGTON     SUNNY     85  63  47 SE6       30.09F HX  86
FAIRFIELD *    MOSUNNY   86  63  45 SE9G15    30.08F HX  87
FORT MADISON * SUNNY     88  66  48 SE7       30.10F HX  90
KEOKUK *       SUNNY     84  63  48 SE8G14    30.09S HX  85
OSKALOOSA *    FAIR      86  61  42 SE9G17    30.07F HX  86
OTTUMWA        SUNNY     85  64  49 SE12      30.07F HX  86
WASHINGTON *   MOSUNNY   86  64  48 SE12      30.10F HX  87
$$

ABBREVIATIONS USED IN REMARKS
   TC - TEMPERATURES IN CELSIUS
  WCI - WIND CHILL INDEX
   HX - HEAT INDEX
  VSB - VISIBILITY
$$





USA.gov is the U.S. government's official web portal to all federal, state and local government web resources and services.